Ketchikan, AK

4:27 AM AKDT on August 15, 2018 (GMT -0800)
Ketchikan International

Weather History for PAKT - May, 2018

Change the Weather History Date:

Tuesday, May 29, 2018

  Actual Average Record
Temperature  
Mean Temperature 48 °F -  
Max Temperature 54 °F 59 °F 79 °F (1964)
Min Temperature 44 °F 44 °F 37 °F (1976)
Degree Days  
Heating Degree Days 16    
Moisture  
Dew Point 42 °F    
Average Humidity 82    
Maximum Humidity 93    
Minimum Humidity 61    
Precipitation  
Precipitation 0.17 in - - ()
Sea Level Pressure  
Sea Level Pressure 30.14 in    
Wind  
Wind Speed 9 mph (SE)    
Max Wind Speed 14 mph    
Max Gust Speed -    
Visibility 9 miles    
Events Rain    
Averages and records for this station are not official NWS values.
T = Trace of Precipitation, MM = Missing Value Source: NWS Daily Summary

Daily Weather History Graph

Daily Weather History Graph

Search for Another Location

Airport or City:

Astronomy

May. 29, 2018 Rise Set
Actual Time 4:16 AM AKDT 9:13 PM AKDT
Civil Twilight 3:22 AM AKDT 10:07 PM AKDT
Nautical Twilight 1:42 AM AKDT 11:50 PM AKDT
Astronomical Twilight Sun does not set Sun does not set
Moon 9:14 PM AKDT (5/29) 4:57 AM AKDT (5/29)
Length of Visible Light 18h 45m
Length of Day
16h 57m
Full, 100% of the Moon is Illuminated
May 29
Full
Jun 6
Last Quarter
Jun 13
New
Jun 20
First Quarter
Jun 27
Full

Hourly Weather History & Observations

Time (AKDT) Temp. Windchill Dew Point Humidity Pressure Visibility Wind Dir Wind Speed Gust Speed Precip Events Conditions
12:53 AM 45.0 °F 40.6 °F 42.1 °F 90% 30.18 in 5.0 mi SSE 8.1 mph - 0.02 in Rain Light Rain
1:12 AM 46.0 °F 41.9 °F 42.1 °F 86% 30.17 in 10.0 mi SE 8.1 mph - 0.00 in   Overcast
1:37 AM 46.0 °F 41.0 °F 42.1 °F 86% 30.17 in 5.0 mi SE 10.4 mph - 0.02 in Rain Light Rain
1:53 AM 46.0 °F 40.2 °F 43.0 °F 89% 30.18 in 6.0 mi ESE 12.7 mph - 0.03 in Rain Light Rain
2:12 AM 45.0 °F 39.7 °F 42.1 °F 90% 30.17 in 6.0 mi SE 10.4 mph - 0.00 in Rain Light Rain
2:53 AM 45.0 °F 39.3 °F 42.1 °F 90% 30.17 in 4.0 mi SE 11.5 mph - 0.03 in Rain Light Rain
3:38 AM 45.0 °F 41.8 °F 43.0 °F 93% 30.15 in 2.0 mi SSE 5.8 mph - 0.05 in Rain Rain
3:50 AM 44.6 °F 42.2 °F 42.8 °F 93% 30.15 in 4.0 mi SSE 4.6 mph - 0.06 in Rain Light Rain
3:53 AM 45.0 °F 43.5 °F 42.1 °F 90% 30.16 in 5.0 mi SSE 3.5 mph - 0.06 in Rain Light Rain
4:53 AM 45.0 °F 41.2 °F 43.0 °F 93% 30.15 in 4.0 mi SE 6.9 mph - 0.03 in Rain Light Rain
5:53 AM 46.0 °F 43.1 °F 43.0 °F 89% 30.15 in 10.0 mi SE 5.8 mph - 0.00 in   Overcast
6:03 AM 46.4 °F 41.9 °F 42.8 °F 87% 30.14 in 10.0 mi ESE 9.2 mph - N/A   Overcast
6:53 AM 46.4 °F 42.4 °F 44.6 °F 93% 30.15 in 10.0 mi SE 8.1 mph - N/A   Overcast
7:53 AM 46.4 °F 41.5 °F 44.6 °F 93% 30.15 in 10.0 mi ESE 10.4 mph - N/A   Mostly Cloudy
8:53 AM 48.2 °F - 44.6 °F 87% 30.15 in 10.0 mi ESE 11.5 mph - N/A   Mostly Cloudy
9:53 AM 48.2 °F - 42.8 °F 82% 30.16 in 10.0 mi ESE 12.7 mph - N/A   Mostly Cloudy
10:53 AM 48.2 °F - 42.8 °F 82% 30.16 in 10.0 mi SE 11.5 mph - N/A   Mostly Cloudy
10:55 AM 48.9 °F - 42.1 °F 77% 30.15 in 10.0 mi SE 11.5 mph - N/A   Overcast
11:53 AM 48.9 °F - 43.0 °F 80% 30.16 in 10.0 mi ESE 9.2 mph - 0.00 in   Overcast
12:53 PM 50.0 °F - 42.1 °F 74% 30.15 in 10.0 mi SE 8.1 mph - N/A   Mostly Cloudy
1:53 PM 50.0 °F - 42.1 °F 74% 30.15 in 10.0 mi ESE 13.8 mph - N/A   Mostly Cloudy
2:53 PM 52.0 °F - 41.0 °F 66% 30.14 in 10.0 mi ESE 13.8 mph - N/A   Mostly Cloudy
3:53 PM 53.1 °F - 42.1 °F 66% 30.13 in 10.0 mi ESE 12.7 mph - N/A   Overcast
4:53 PM 53.6 °F - 41.0 °F 62% 30.12 in 10.0 mi SE 11.5 mph - N/A   Mostly Cloudy
5:53 PM 53.1 °F - 39.9 °F 61% 30.11 in 10.0 mi ESE 12.7 mph - N/A   Scattered Clouds
6:53 PM 51.8 °F - 39.2 °F 62% 30.10 in 10.0 mi SE 12.7 mph - N/A   Scattered Clouds
7:53 PM 50.0 °F - 42.8 °F 76% 30.09 in 10.0 mi SE 8.1 mph - N/A   Partly Cloudy
8:53 PM 48.2 °F - 42.8 °F 82% 30.10 in 10.0 mi SE 8.1 mph - N/A   Partly Cloudy
9:15 PM 46.9 °F - 41.0 °F 80% 30.09 in 10.0 mi SE 4.6 mph - N/A   Mostly Cloudy
9:53 PM 46.0 °F 43.9 °F 41.0 °F 83% 30.10 in 10.0 mi South 4.6 mph - N/A   Overcast
10:18 PM 46.0 °F 43.9 °F 41.0 °F 83% 30.10 in 10.0 mi SSE 4.6 mph - N/A   Scattered Clouds
10:42 PM 46.0 °F 43.9 °F 42.1 °F 86% 30.09 in 10.0 mi SSE 4.6 mph - N/A   Mostly Cloudy
10:53 PM 46.0 °F 43.9 °F 41.0 °F 83% 30.10 in 10.0 mi South 4.6 mph - N/A   Overcast
11:26 PM 46.9 °F - 42.1 °F 83% 30.10 in 10.0 mi SE 5.8 mph - N/A   Overcast
11:53 PM 46.0 °F 43.1 °F 42.1 °F 86% 30.10 in 10.0 mi SSE 5.8 mph - N/A   Overcast